Terug naar catalogus

ALOS DEB

ActiefSSO
NORAD 36571·DEBRIS·🇯🇵 Japan

Gelanceerd Jan 24, 2006 vanaf Tanegashima Space Center

Loading…

Volgende Passages (komende 24 uur)

TLE

VersSource: Space-Track

Epoch: Sep 14, 2026, 08:33 UTC

1 36571U 06002AA  26257.35678317  .00002993  00000-0  34958-3 0  9997
2 36571  98.0545 230.9158 0000887  78.4047 281.7267 14.85917598876940

Volg ALOS DEB in realtime met AllMySat

Download on the App Store